Weather History for Alexander City, AL

Change the Weather History Date:

Thursday, November 7, 2013

  Actual Average (KAUO) Record (KAUO)
Temperature  
Mean Temperature 52 °F -  
Max Temperature 65 °F - 80 °F (2005)
Min Temperature 40 °F - 24 °F (1967)
Degree Days  
Heating Degree Days 12    
Month to date heating degree days  
Since 1 July heating degree days  
Growing Degree Days 2 (Base 50)    
Moisture  
Dew Point 48 °F    
Average Humidity 71    
Maximum Humidity 85    
Minimum Humidity 40    
Precipitation  
Precipitation 0.08 in - 3.75 in (2000)
Month to date precipitation  
Year to date precipitation  
Sea Level Pressure  
Sea Level Pressure 30.18 in    
Wind  
Wind Speed 4 mph (NNW)    
Max Wind Speed 17 mph    
Max Gust Speed 23 mph    
Visibility 9 miles    
Events Rain    
T = Trace of Precipitation, MM = Missing Value Source: NWS Daily Summary

Daily Weather History Graph

Daily Weather History Graph

Search for Another Location

Airport:

Trip Planner

Search our weather history database for the weather conditions in past years. The results will help you decide how hot, cold, wet, or windy it might be!

Date:

Astronomy

Nov. 07, 2013 Rise Set
Actual Time 6:07 AM CST 4:47 PM CST
Civil Twilight 5:41 AM CST 5:13 PM CST
Nautical Twilight 5:11 AM CST 5:42 PM CST
Astronomical Twilight 4:42 AM CST 6:11 PM CST
Moon 10:12 AM CST (11/7) 9:00 PM CST (11/7)
Length of Visible Light 11h 31m
Length of Day
10h 40m
Waxing Crescent, 23% of the Moon is Illuminated
Nov 7
Waxing Crescent
Nov 9
First Quarter
Nov 17
Full
Nov 25
Last Quarter
Dec 2
New

Hourly Weather History & Observations

Time (CST) Temp. Windchill Dew Point Humidity Pressure Visibility Wind Dir Wind Speed Gust Speed Precip Events Conditions
12:15 AM 62.8 °F - 58.1 °F 85% 30.10 in 7.0 mi Calm Calm - N/A   Scattered Clouds
12:35 AM 62.8 °F - 58.1 °F 85% 30.09 in 7.0 mi Calm Calm - N/A   Scattered Clouds
12:55 AM 63.9 °F - 59.2 °F 85% 30.10 in 10.0 mi Calm Calm - N/A   Mostly Cloudy
1:15 AM 64.2 °F - 58.8 °F 83% 30.09 in 10.0 mi Calm Calm - N/A   Overcast
1:55 AM 64.8 °F - 59.4 °F 83% 30.09 in 10.0 mi Calm Calm - N/A   Mostly Cloudy
2:15 AM 65.5 °F - 60.3 °F 83% 30.09 in 10.0 mi Calm Calm - N/A   Mostly Cloudy
2:35 AM 65.5 °F - 60.3 °F 83% 30.08 in 10.0 mi Calm Calm - N/A   Mostly Cloudy
2:55 AM 65.5 °F - 60.3 °F 83% 30.08 in 10.0 mi Calm Calm - N/A   Mostly Cloudy
3:15 AM 65.5 °F - 60.1 °F 83% 30.07 in 10.0 mi Calm Calm - N/A   Overcast
3:35 AM 65.5 °F - 60.1 °F 83% 30.07 in 10.0 mi Calm Calm - N/A   Overcast
3:55 AM 65.5 °F - 60.3 °F 83% 30.08 in 7.0 mi Calm Calm - N/A   Overcast
4:15 AM 65.5 °F - 60.6 °F 84% 30.08 in 4.0 mi Calm Calm - N/A   Light Drizzle
4:35 AM 65.5 °F - 60.8 °F 85% 30.08 in 5.0 mi Calm Calm - N/A   Drizzle
4:55 AM 65.5 °F - 60.8 °F 85% 30.09 in 4.0 mi Calm Calm - N/A Rain Rain
5:15 AM 65.5 °F - 60.8 °F 85% 30.09 in 4.0 mi Calm Calm - 0.01 in Rain Heavy Rain
5:35 AM 65.5 °F - 60.8 °F 85% 30.09 in 5.0 mi NNW 3.5 mph - 0.03 in   Drizzle
5:55 AM 65.5 °F - 60.8 °F 85% 30.09 in 7.0 mi NW 6.9 mph - 0.03 in   Heavy Drizzle
6:15 AM 65.5 °F - 60.8 °F 85% 30.10 in 5.0 mi NNW 5.8 mph - 0.01 in   Heavy Drizzle
6:35 AM 65.5 °F - 60.8 °F 85% 30.11 in 4.0 mi NW 5.8 mph - 0.03 in Rain Rain
6:55 AM 65.5 °F - 60.8 °F 85% 30.12 in 4.0 mi NW 6.9 mph - 0.04 in Rain Light Rain
7:15 AM 65.5 °F - 60.8 °F 85% 30.12 in 10.0 mi NW 8.1 mph - 0.01 in   Overcast
7:35 AM 65.5 °F - 60.4 °F 84% 30.13 in 10.0 mi NNW 8.1 mph - 0.01 in   Overcast
7:55 AM 63.5 °F - 58.5 °F 84% 30.15 in 10.0 mi NW 9.2 mph 17.3 mph 0.01 in   Overcast
8:15 AM 63.5 °F - 58.1 °F 83% 30.16 in 10.0 mi NNW 6.9 mph - N/A   Overcast
8:35 AM 64.4 °F - 58.5 °F 81% 30.16 in 10.0 mi NW 12.7 mph - N/A   Mostly Cloudy
8:55 AM 61.7 °F - 54.1 °F 76% 30.17 in 10.0 mi North 13.8 mph 23.0 mph N/A   Overcast
9:15 AM 61.5 °F - 55.2 °F 80% 30.18 in 10.0 mi NNW 11.5 mph - N/A   Overcast
9:35 AM 60.3 °F - 54.7 °F 82% 30.20 in 10.0 mi NW 12.7 mph 18.4 mph N/A   Overcast
9:55 AM 57.7 °F - 52.3 °F 82% 30.21 in 10.0 mi NW 15.0 mph 19.6 mph N/A   Overcast
10:15 AM 57.7 °F - 52.0 °F 81% 30.21 in 10.0 mi NNW 11.5 mph 19.6 mph N/A   Overcast
10:35 AM 57.7 °F - 51.8 °F 81% 30.21 in 10.0 mi NNW 13.8 mph 20.7 mph N/A   Overcast
10:55 AM 57.7 °F - 50.7 °F 77% 30.21 in 10.0 mi NW 10.4 mph 16.1 mph N/A   Overcast
11:15 AM 57.7 °F - 49.8 °F 75% 30.21 in 10.0 mi NW 12.7 mph 18.4 mph N/A   Overcast
11:35 AM 57.7 °F - 47.5 °F 69% 30.20 in 10.0 mi North 16.1 mph 20.7 mph N/A   Overcast
11:55 AM 60.1 °F - 46.2 °F 60% 30.19 in 10.0 mi North 16.1 mph 20.7 mph N/A   Scattered Clouds
12:15 PM 60.3 °F - 44.6 °F 56% 30.19 in 10.0 mi North 13.8 mph 18.4 mph N/A   Clear
12:35 PM 60.6 °F - 43.2 °F 53% 30.18 in 10.0 mi North 13.8 mph - N/A   Clear
12:55 PM 61.5 °F - 41.5 °F 48% 30.17 in 10.0 mi North 17.3 mph 23.0 mph N/A   Clear
1:15 PM 61.5 °F - 41.4 °F 48% 30.17 in 10.0 mi NNW 13.8 mph 17.3 mph N/A   Clear
1:35 PM 61.7 °F - 42.1 °F 49% 30.18 in 10.0 mi NW 10.4 mph 17.3 mph N/A   Clear
1:55 PM 61.2 °F - 41.5 °F 48% 30.18 in 10.0 mi WNW 8.1 mph 17.3 mph N/A   Clear
2:15 PM 61.7 °F - 41.2 °F 47% 30.18 in 10.0 mi NNW 11.5 mph - N/A   Clear
2:35 PM 60.8 °F - 39.4 °F 45% 30.17 in 10.0 mi NW 9.2 mph - N/A   Clear
2:55 PM 60.8 °F - 37.9 °F 43% 30.18 in 10.0 mi NNW 16.1 mph 20.7 mph N/A   Clear
3:15 PM 61.0 °F - 37.4 °F 42% 30.18 in 10.0 mi NW 13.8 mph - N/A   Clear
3:35 PM 60.3 °F - 35.6 °F 40% 30.19 in 10.0 mi NNW 10.4 mph 18.4 mph N/A   Clear
3:55 PM 60.3 °F - 36.0 °F 40% 30.19 in 10.0 mi NNW 11.5 mph - N/A   Clear
4:55 PM 55.4 °F - 36.3 °F 49% 30.21 in 10.0 mi NNW 6.9 mph - N/A   Clear
5:15 PM 55.4 °F - 38.5 °F 53% 30.22 in 10.0 mi NNW 6.9 mph - N/A   Clear
5:35 PM 55.4 °F - 39.7 °F 56% 30.22 in 10.0 mi NNW 5.8 mph - N/A   Clear
5:55 PM 54.5 °F - 39.4 °F 57% 30.23 in 10.0 mi NW 6.9 mph - N/A   Clear
6:15 PM 52.7 °F - 37.9 °F 57% 30.23 in 10.0 mi NNW 6.9 mph - N/A   Clear
6:35 PM 52.5 °F - 37.4 °F 56% 30.23 in 10.0 mi North 6.9 mph - N/A   Clear
6:55 PM 51.4 °F - 36.5 °F 57% 30.23 in 10.0 mi NNW 3.5 mph - N/A   Clear
7:15 PM 50.2 °F - 36.5 °F 59% 30.23 in 10.0 mi NNW 4.6 mph - N/A   Clear
7:35 PM 48.0 °F - 39.9 °F 74% 30.25 in 10.0 mi Calm Calm - N/A   Clear
7:55 PM 47.7 °F - 40.8 °F 77% 30.25 in 10.0 mi Calm Calm - N/A   Clear
8:15 PM 47.7 °F - 39.0 °F 72% 30.25 in 10.0 mi Calm Calm - N/A   Clear
8:35 PM 47.7 °F - 39.4 °F 73% 30.26 in 10.0 mi Calm Calm - N/A   Clear
8:55 PM 45.0 °F 43.5 °F 37.6 °F 75% 30.27 in 10.0 mi North 3.5 mph - N/A   Clear
9:15 PM 44.1 °F 42.5 °F 36.1 °F 74% 30.28 in 10.0 mi NNW 3.5 mph - N/A   Clear
9:35 PM 47.5 °F - 36.9 °F 67% 30.28 in 10.0 mi NNW 4.6 mph - N/A   Clear
9:55 PM 43.9 °F - 35.8 °F 73% 30.28 in 10.0 mi Calm Calm - N/A   Clear
10:15 PM 46.6 °F - 35.4 °F 65% 30.28 in 10.0 mi Calm Calm - N/A   Clear
10:35 PM 45.5 °F - 34.5 °F 65% 30.28 in 10.0 mi Calm Calm - N/A   Clear
10:55 PM 42.6 °F - 35.4 °F 76% 30.29 in 10.0 mi Calm Calm - N/A   Clear
11:15 PM 42.6 °F - 35.8 °F 77% 30.28 in 10.0 mi Calm Calm - N/A   Clear
11:35 PM 40.1 °F - 34.7 °F 81% 30.28 in 10.0 mi Calm Calm - N/A   Clear
11:55 PM 40.6 °F - 35.1 °F 80% 30.28 in 10.0 mi Calm Calm - N/A   Clear